Regional Weather Roundup
Issued by NWS

Home | Current Version | Previous Version | Text Only | Print | Product List | Glossary Off
Versions: 1 2 3 4 5 6 7 8 9 10 11 12 13 14 15 16 17 18 19 20 21 22 23 24 25 26 27 28 29 30 31 32 33 34 35 36 37 38 39 40 41 42 43 44 45 46 47 48 49 50

000
ASUS45 KBOI 240510
RWRID

IDAHO REGIONAL WEATHER ROUNDUP
NATIONAL WEATHER SERVICE BOISE ID
1100 PM MDT MON APR 23 2018

NOTE: "FAIR" INDICATES FEW OR NO CLOUDS BELOW 12000 FEET
WITH NO SIGNIFICANT WEATHER AND/OR OBSTRUCTIONS TO VISIBILITY

IDZ012-014-240600-
SOUTHWEST IDAHO


CITY           SKY/WX    TMP DP  RH WIND       PRES   REMARKS
BOISE          CLEAR     51  29  42 SW5       30.22R
CALDWELL       CLEAR     50  29  44 W8        30.23R
MOUNTAIN HOME  CLOUDY    53  34  50 E12       30.25R
$$

IDZ016-017-240600-
SOUTHCENTRAL IDAHO


CITY           SKY/WX    TMP DP  RH WIND       PRES   REMARKS
BURLEY         CLEAR     42  34  73 N7        30.28R
JEROME         PTCLDY    46  35  65 NE15      30.28R
TWIN FALLS     CLEAR     42  35  76 E9        30.28R
$$

IDZ019>023-240600-
SOUTHEAST IDAHO


CITY           SKY/WX    TMP DP  RH WIND       PRES   REMARKS
IDAHO FALLS    PTCLDY    40  31  70 N12       30.33R WCI  33
POCATELLO      CLEAR     39  34  82 NE6       30.31R WCI  35
REXBURG        PTCLDY    38  29  70 N10G22    30.33R WCI  31
$$

IDZ006-010-011-018-031-032-240600-
CENTRAL IDAHO MOUNTAINS


CITY           SKY/WX    TMP DP  RH WIND       PRES   REMARKS
MCCALL         CLEAR     42  23  46 NE10      30.28R
HAILEY         MOCLDY    43  37  81 W6        30.32R
STANLEY          N/A     39  26  59 N7        30.33R WCI  34
SALMON         CLOUDY    43  29  57 NW9       30.39R
CHALLIS        CLOUDY    46  27  47 NE8       30.35R
$$

IDZ002-004-006-007-026-240600-
NORTHERN IDAHO


CITY           SKY/WX    TMP DP  RH WIND       PRES   REMARKS
LEWISTON       CLEAR     52  35  52 S6        30.32R
LOWELL           N/A     45  37  73 CALM      30.38R
COEUR D`ALENE  CLEAR     44  30  57 E6        30.37R
MULLAN PASS    CLEAR     36  20  52 SE6       30.39S WCI  31
$$



USA.gov is the U.S. government's official web portal to all federal, state and local government web resources and services.